Probability
0 0 0 0 0 0 0 0 0 0 0 0 0 0 0 0 0 0 0 3 3 3 0 0 0 0 0 0 0 0 0 0 0 0 3 3 3 3 3 3 6 6 6 6
0 0 0 0 0 0 0 0 0 0 0 0 0 0 0 0 0 0 0 0 3 3 3 0 0 0 0 0 0 0 0 0 0 0 0 3 3 3 3 3 3 3 3 3
0 0 0 0 0 0 0 0 0 0 0 0 0 0 0 0 0 0 0 0 0 3 3 3 0 0 0 0 0 0 0 0 0 0 0 0 0 0 0 3 3 3 3 3
0 0 0 0 0 0 0 0 0 0 0 0 0 0 0 0 0 0 0 0 0 0 3 3 0 0 0 0 0 0 0 0 0 0 0 0 0 0 0 0 3 3 3 3
0 0 0 0 0 0 0 0 0 0 0 0 0 0 0 0 0 0 0 0 0 0 0 0 0 0 0 0 0 0 0 0 0 0 0 0 0 0 0 0 0 0 3 3
0 0 0 0 0 0 0 0 0 0 0 0 0 0 0 0 0 0 0 0 0 0 0 0 0 0 0 0 0 0 0 0 3 0 0 0 0 0 0 0 0 0 0 3
0 0 0 0 0 0 0 0 0 0 0 0 0 0 0 0 0 0 0 0 0 0 0 0 0 0 0 0 0 0 0 0 3 0 0 0 0 0 0 0 0 0 0 0
0 0 0 0 0 0 0 0 0 0 0 0 0 0 0 0 0 0 0 0 0 0 0 0 0 0 0 0 0 0 0 0 3 0 0 0 0 0 0 0 0 0 0 0
0 0 0 0 0 0 0 0 0 0 0 0 0 0 0 0 0 0 0 0 0 0 0 0 0 0 0 0 0 0 0 0 0 0 0 0 0 0 0 0 0 0 0 0
0 0 0 0 0 0 0 0 0 0 0 0 0 0 0 0 0 0 0 0 0 0 0 0 0 0 0 0 0 0 0 0 0 0 0 0 0 0 0 0 0 0 0 0
0 0 0 0 0 0 0 0 0 0 0 0 0 0 0 0 0 0 0 0 0 0 0 0 0 0 0 0 0 0 0 0 0 0 0 0 0 0 0 0 0 0 0 0
0 0 0 0 0 0 0 0 0 0 0 0 0 0 0 0 0 0 0 0 0 0 0 0 0 0 0 0 0 0 0 0 0 0 0 0 0 0 0 0 0 0 0 0
0 0 0 0 0 0 0 0 0 0 0 0 0 0 0 0 0 0 0 0 0 0 0 0 0 0 0 0 0 0 0 0 0 0 0 0 0 0 0 0 0 0 0 0
0 0 0 0 0 0 0 0 0 0 0 0 0 0 0 0 0 0 0 0 0 0 0 0 0 0 0 0 0 0 0 0 0 0 0 0 0 0 0 0 0 0 0 0
0 0 0 0 0 0 0 0 0 0 0 0 0 0 0 0 0 0 0 0 0 0 0 0 0 0 0 0 0 0 0 0 0 0 0 0 0 0 0 0 0 0 0 0
0 0 0 0 0 0 0 0 0 0 0 0 0 0 0 0 0 0 0 0 0 0 0 0 0 0 0 0 0 0 0 0 0 0 0 0 0 0 0 0 0 0 0 0
0 0 0 0 0 0 0 0 0 0 0 0 0 0 0 0 0 0 0 0 0 0 0 0 0 0 0 0 0 0 0 0 0 0 0 0 0 0 0 0 0 0 0 0
0 0 0 0 0 0 0 0 0 0 0 0 0 0 0 0 0 0 0 0 0 0 0 0 0 0 0 0 0 0 0 0 0 0 0 0 0 0 0 0 0 0 0 0
0 0 0 0 0 0 0 0 0 0 0 0 0 0 0 0 0 0 0 0 0 0 0 0 0 0 0 0 0 0 0 0 0 0 0 0 0 0 0 0 0 0 0 0
0 0 0 0 0 0 0 0 0 0 0 0 0 0 0 0 0 0 0 0 0 0 0 0 0 0 0 0 0 0 0 0 0 0 0 0 0 0 0 0 0 0 0 0
0 0 0 0 0 0 0 0 0 0 0 0 0 0 0 0 0 0 0 0 0 0 0 0 0 0 0 0 0 0 0 0 0 0 0 0 0 0 0 0 0 0 0 0
0 0 0 0 0 0 0 0 0 0 0 0 0 0 0 0 0 0 0 0 0 0 0 0 0 0 0 0 0 0 0 0 0 0 0 0 0 0 0 0 0 0 0 0
0 0 0 0 0 0 0 0 0 0 0 0 0 0 0 0 0 0 0 0 0 0 0 0 0 0 0 0 0 0 0 0 0 0 0 0 0 0 0 0 0 0 0 0
0 0 0 0 0 0 0 0 0 0 0 0 0 0 0 0 0 0 0 0 0 0 0 0 0 0 0 0 0 0 0 0 0 0 0 0 0 0 0 0 0 0 0 0
0 0 0 0 0 0 0 0 0 0 0 0 0 0 0 0 0 0 0 0 0 0 0 0 0 0 0 0 0 0 0 0 0 0 0 0 0 0 0 0 0 0 0 0
0 0 0 0 0 0 0 0 0 0 0 0 0 0 0 0 0 0 0 0 0 0 0 0 0 0 0 0 0 0 0 0 0 0 0 0 0 0 0 0 0 0 0 0
Height
5702 5704 5705 5707 5709 5711 5713 5714 5716 5718 5719 5721 5723 5725 5727 5729 5731 5734 5735 5737 5739 5741 5743 5744 5746 5748 5750 5752 5755 5757 5759 5761 5763 5765 5767 5769 5771 5772 5773 5774 5775 5775 5776 5776
5694 5696 5698 5699 5701 5702 5704 5706 5708 5709 5710 5712 5714 5716 5718 5720 5723 5725 5727 5729 5731 5732 5734 5736 5738 5740 5742 5743 5746 5748 5750 5752 5754 5756 5758 5760 5762 5763 5764 5765 5766 5766 5767 5767
5686 5689 5690 5691 5693 5694 5696 5698 5700 5701 5702 5703 5706 5708 5711 5712 5714 5716 5718 5720 5721 5723 5725 5727 5729 5731 5732 5734 5736 5739 5741 5743 5745 5747 5749 5751 5753 5755 5755 5756 5757 5758 5758 5758
5678 5680 5682 5683 5684 5686 5688 5690 5691 5693 5694 5695 5697 5698 5703 5704 5705 5707 5709 5711 5713 5714 5716 5718 5720 5721 5723 5725 5727 5729 5731 5734 5736 5738 5740 5742 5744 5745 5746 5747 5747 5747 5748 5747
5671 5672 5673 5675 5677 5678 5680 5681 5683 5684 5685 5686 5688 5689 5694 5695 5697 5699 5701 5702 5704 5705 5707 5708 5710 5712 5713 5715 5717 5719 5721 5724 5726 5728 5730 5732 5733 5734 5736 5736 5737 5737 5737 5737
5663 5664 5665 5667 5668 5669 5671 5673 5674 5674 5675 5677 5680 5680 5684 5687 5690 5691 5692 5693 5694 5696 5697 5699 5700 5702 5703 5705 5707 5709 5711 5714 5716 5718 5720 5721 5723 5724 5725 5726 5726 5727 5726 5726
5655 5656 5657 5658 5660 5661 5663 5665 5665 5665 5666 5668 5671 5671 5675 5679 5680 5682 5683 5684 5685 5686 5687 5689 5691 5692 5694 5695 5697 5699 5701 5703 5705 5707 5709 5711 5712 5713 5715 5715 5715 5715 5715 5715
5646 5649 5650 5651 5652 5654 5655 5657 5658 5658 5659 5661 5662 5662 5667 5670 5671 5672 5673 5674 5675 5676 5678 5679 5681 5682 5684 5685 5687 5688 5690 5693 5695 5697 5699 5700 5701 5702 5703 5704 5704 5704 5704 5703
5639 5641 5642 5643 5644 5646 5647 5648 5650 5650 5650 5651 5652 5655 5658 5660 5662 5663 5664 5665 5666 5667 5668 5669 5671 5672 5673 5675 5677 5678 5680 5682 5684 5686 5687 5689 5690 5691 5692 5692 5692 5692 5692 5691
5631 5633 5634 5635 5636 5637 5639 5641 5642 5642 5642 5643 5644 5647 5650 5652 5652 5654 5655 5656 5657 5658 5659 5659 5660 5662 5663 5664 5666 5668 5669 5671 5673 5674 5676 5678 5679 5680 5680 5680 5680 5680 5680 5679
5624 5625 5626 5627 5628 5630 5632 5633 5633 5634 5635 5636 5636 5641 5642 5642 5643 5644 5645 5646 5647 5648 5649 5650 5651 5652 5653 5654 5655 5657 5658 5660 5662 5663 5664 5666 5667 5668 5668 5668 5668 5668 5668 5667
5616 5617 5618 5620 5621 5622 5623 5625 5626 5627 5628 5628 5629 5634 5633 5633 5634 5635 5636 5636 5637 5639 5639 5640 5641 5642 5643 5644 5646 5647 5648 5649 5651 5652 5653 5654 5655 5656 5656 5656 5656 5656 5656 5655
5609 5610 5611 5613 5616 5615 5616 5617 5618 5619 5620 5620 5621 5626 5625 5625 5625 5626 5626 5627 5628 5629 5630 5631 5632 5632 5634 5635 5636 5637 5638 5639 5640 5641 5642 5643 5644 5644 5644 5644 5644 5644 5643 5643
5601 5602 5605 5606 5606 5608 5609 5610 5611 5611 5612 5613 5615 5616 5617 5617 5617 5617 5618 5618 5619 5620 5621 5622 5622 5623 5624 5625 5626 5627 5628 5628 5629 5631 5631 5632 5632 5632 5632 5632 5632 5632 5631 5631
5594 5595 5596 5597 5598 5599 5601 5602 5603 5604 5605 5606 5608 5608 5609 5608 5609 5609 5609 5609 5610 5611 5612 5613 5613 5614 5614 5615 5616 5616 5617 5618 5619 5620 5620 5620 5620 5620 5620 5620 5620 5619 5619 5618
5587 5588 5589 5590 5591 5591 5592 5594 5595 5596 5598 5599 5599 5600 5601 5600 5600 5600 5600 5601 5601 5602 5603 5603 5603 5604 5604 5605 5606 5607 5607 5608 5608 5609 5609 5609 5609 5609 5609 5608 5608 5608 5607 5607
5580 5581 5582 5583 5583 5583 5585 5588 5589 5590 5590 5591 5591 5594 5593 5593 5592 5592 5592 5592 5592 5593 5594 5594 5594 5594 5594 5595 5596 5596 5597 5597 5598 5598 5598 5598 5598 5598 5597 5597 5596 5596 5595 5595
5574 5574 5574 5575 5577 5576 5582 5581 5581 5582 5583 5583 5584 5584 5584 5584 5584 5584 5583 5583 5583 5584 5584 5585 5585 5585 5585 5585 5586 5586 5586 5587 5587 5587 5587 5587 5587 5587 5586 5586 5585 5585 5584 5583
5567 5567 5567 5568 5568 5569 5573 5574 5574 5574 5575 5576 5576 5576 5576 5575 5575 5576 5575 5575 5575 5575 5575 5575 5575 5575 5575 5575 5575 5576 5576 5576 5576 5576 5576 5576 5575 5575 5574 5574 5574 5573 5572 5571
5560 5560 5561 5561 5561 5562 5567 5567 5566 5567 5567 5568 5567 5567 5567 5567 5567 5568 5567 5566 5566 5566 5565 5565 5565 5565 5565 5565 5565 5565 5566 5566 5565 5565 5565 5564 5563 5563 5563 5563 5562 5561 5560 5559
5552 5552 5553 5554 5553 5555 5559 5559 5559 5560 5561 5560 5559 5559 5558 5558 5559 5559 5557 5557 5557 5556 5556 5556 5556 5555 5555 5554 5554 5554 5555 5555 5554 5554 5554 5553 5552 5552 5552 5551 5550 5549 5549 5548
5544 5545 5546 5546 5546 5551 5551 5550 5551 5551 5551 5551 5550 5550 5550 5550 5549 5549 5548 5548 5547 5547 5546 5546 5546 5545 5545 5544 5544 5544 5544 5544 5543 5543 5543 5542 5541 5541 5540 5540 5539 5538 5538 5537
5537 5538 5538 5540 5542 5542 5542 5542 5542 5542 5542 5542 5542 5542 5542 5541 5540 5540 5539 5538 5538 5537 5537 5536 5535 5535 5534 5533 5533 5533 5533 5532 5532 5532 5532 5531 5531 5530 5530 5529 5528 5528 5527 5526
5529 5530 5530 5531 5533 5533 5533 5533 5534 5534 5533 5533 5533 5533 5533 5532 5532 5531 5530 5529 5528 5528 5527 5526 5525 5524 5523 5522 5521 5522 5522 5522 5522 5522 5522 5522 5521 5520 5520 5519 5518 5517 5516 5515
5522 5522 5523 5523 5525 5525 5525 5525 5525 5525 5525 5524 5524 5524 5524 5523 5522 5522 5521 5520 5519 5518 5517 5516 5515 5514 5513 5512 5511 5511 5512 5512 5512 5512 5512 5512 5511 5511 5510 5509 5507 5507 5506 5505
5515 5516 5516 5517 5518 5517 5517 5517 5517 5516 5516 5516 5516 5515 5515 5514 5513 5512 5511 5511 5510 5509 5508 5507 5506 5505 5504 5503 5502 5502 5502 5502 5503 5503 5502 5502 5501 5501 5500 5499 5498 5496 5496 5495
Wind_Speed
29 30 31 32 32 32 33 33 33 33 34 34 34 34 35 35 36 36 36 36 37 38 38 38 38 37 38 38 38 38 38 37 38 38 37 36 35 34 34 34 34 34 35 35
29 30 30 31 31 32 32 32 32 33 33 34 34 34 34 35 35 36 36 37 37 37 38 38 39 38 38 38 38 39 39 39 39 39 38 38 36 37 36 36 36 35 36 37
28 28 29 31 31 32 32 32 32 33 34 35 35 35 34 34 35 35 35 36 36 37 37 38 39 39 39 39 39 39 40 40 41 40 40 39 40 38 38 38 38 38 38 37
27 27 28 30 31 32 32 32 33 33 34 35 36 36 34 34 34 34 35 35 35 36 36 37 38 39 39 39 39 41 41 41 41 41 41 41 40 41 40 39 39 39 39 39
27 27 28 29 30 32 32 32 33 33 34 35 36 37 35 34 33 32 33 34 35 36 37 37 37 38 39 40 40 41 42 42 42 42 43 43 43 42 42 42 41 41 41 41
27 27 28 28 29 31 32 33 34 34 35 36 35 36 36 34 33 32 33 34 35 36 37 37 38 38 38 39 41 41 42 43 42 42 42 43 43 43 43 42 43 43 44 44
27 27 27 27 29 29 30 32 33 34 35 35 34 36 35 33 32 32 33 34 34 35 36 36 37 38 38 39 39 41 41 42 43 42 42 43 43 43 44 44 44 44 45 45
27 28 27 27 27 28 29 30 31 33 34 34 34 35 34 33 32 32 32 33 33 34 35 36 37 37 38 39 39 40 41 42 43 44 43 43 44 45 45 45 45 46 47 46
26 28 28 28 28 28 28 29 30 31 33 34 35 34 34 33 33 32 32 32 33 34 34 35 36 37 38 39 40 40 41 42 43 44 44 44 45 45 45 45 46 46 46 46
26 27 27 27 28 28 28 27 29 30 31 32 34 33 32 31 32 32 32 33 33 34 34 35 36 37 38 38 39 40 41 42 43 44 45 45 45 46 46 46 47 47 47 46
27 27 25 26 27 27 28 28 28 29 31 31 32 32 31 31 31 31 31 32 32 33 33 33 35 36 37 38 39 40 41 42 43 44 44 45 45 45 46 47 47 47 46 46
25 26 26 25 25 26 28 28 28 28 29 30 30 30 29 29 29 30 31 31 31 31 32 32 33 34 35 36 38 39 40 41 43 44 44 44 45 45 46 46 46 46 46 46
25 26 27 26 26 26 26 27 27 28 28 28 29 29 28 27 28 28 29 30 31 31 31 32 32 34 35 36 36 37 39 40 41 42 43 44 44 45 46 46 46 46 46 46
25 25 26 27 27 27 26 26 27 27 28 28 28 29 28 28 28 28 28 29 30 31 32 32 33 34 35 36 36 37 38 39 40 41 42 42 43 44 45 46 46 46 46 47
24 24 25 26 26 27 27 26 26 27 28 28 27 28 27 28 29 29 30 30 30 31 31 32 33 34 35 36 37 37 37 38 39 40 41 42 43 43 44 45 45 45 45 46
23 23 24 25 25 27 28 27 26 26 27 27 27 27 26 27 28 29 30 31 31 32 31 31 32 33 34 35 36 37 37 37 38 39 39 41 42 42 42 43 44 45 45 45
24 24 24 25 25 27 28 26 26 26 26 27 26 26 26 27 28 29 30 30 31 31 31 32 32 32 33 34 35 36 36 37 38 39 39 40 41 41 42 43 43 44 44 44
24 24 25 25 25 27 25 25 26 26 26 26 26 27 27 27 27 28 29 30 31 31 32 32 33 33 33 33 34 36 36 37 38 39 40 40 40 41 42 42 42 43 44 44
25 25 25 26 25 25 24 24 25 26 26 26 27 27 28 28 28 28 28 28 29 31 32 32 32 32 33 34 35 35 36 36 38 39 39 40 41 40 41 41 42 43 43 43
24 24 25 25 25 25 23 23 24 26 26 25 27 27 28 29 29 28 29 29 29 29 30 30 31 32 33 34 35 36 36 37 38 38 39 39 40 41 41 41 41 42 42 43
25 25 25 25 26 25 24 23 24 25 25 25 26 27 28 29 29 29 30 30 30 30 30 30 30 31 32 33 34 35 37 37 38 38 38 39 39 40 41 40 40 41 41 41
26 26 26 26 26 25 24 25 25 25 26 26 26 27 28 28 29 29 30 30 30 30 31 31 31 32 33 33 34 35 36 37 38 37 36 36 37 37 37 38 38 39 39 39
25 25 25 25 25 25 25 25 26 26 26 26 26 27 28 28 29 29 30 30 30 30 30 31 32 32 33 34 34 34 34 35 35 34 34 34 34 34 35 36 37 37 38 38
24 24 24 24 24 24 25 25 25 26 26 26 27 27 28 28 29 29 29 30 30 30 31 31 31 31 32 33 34 34 34 33 33 33 32 33 33 34 34 35 36 36 37 37
23 23 23 23 24 24 25 25 25 25 26 26 27 27 27 27 28 29 29 29 30 30 30 31 31 31 31 31 32 32 32 32 31 31 31 32 33 33 34 34 35 35 36 35
22 23 23 23 23 24 24 25 25 25 26 26 27 27 27 28 28 28 28 28 29 29 29 29 29 30 30 29 29 29 30 31 31 31 32 32 33 33 34 34 34 33 34 34
Wind_Direction
252 251 250 250 251 251 250 249 250 250 249 249 248 248 247 247 247 247 248 248 248 249 249 250 250 250 250 251 250 248 247 246 246 248 249 250 251 252 254 256 257 259 261 263
252 251 250 250 251 250 250 250 251 250 251 251 249 249 249 248 248 248 248 249 249 249 250 249 250 251 251 251 250 249 248 246 247 247 248 249 251 252 254 257 258 260 262 264
253 251 250 250 250 250 250 251 252 252 251 252 251 250 250 250 249 249 249 249 249 249 249 249 249 249 250 251 250 248 247 247 248 248 248 250 252 255 255 256 258 260 263 265
252 251 251 250 250 250 251 251 252 252 252 252 252 252 250 251 251 250 250 250 250 249 249 249 249 249 249 250 250 249 248 247 247 248 249 251 252 255 256 257 259 261 264 266
253 252 252 252 251 251 251 251 252 252 253 253 253 254 251 251 252 252 252 252 251 250 250 249 250 249 249 250 249 249 248 247 249 250 250 252 253 255 258 260 261 262 264 266
255 254 254 252 252 251 251 251 252 253 253 253 253 255 253 252 252 252 253 253 253 252 251 250 251 251 250 249 249 248 248 247 248 250 252 253 255 257 259 260 262 264 265 267
256 254 253 253 252 252 251 251 252 253 253 254 253 255 255 253 253 252 252 253 253 252 252 251 251 252 251 250 250 249 249 248 249 251 251 253 255 257 259 261 262 265 267 268
259 255 254 253 253 253 252 251 252 254 255 256 254 254 255 255 255 254 254 253 253 253 253 252 252 252 252 251 251 251 250 249 250 251 252 254 255 257 260 262 264 267 268 269
261 258 255 254 252 251 252 252 253 256 257 258 257 257 256 256 256 255 255 254 253 253 254 254 253 252 252 253 252 252 251 251 251 252 254 254 256 259 260 263 265 267 269 270
260 260 256 253 251 250 251 252 254 255 259 261 260 259 259 257 257 257 256 256 255 254 253 253 253 252 252 253 253 253 252 251 251 253 254 256 258 259 261 263 266 268 269 270
260 259 256 253 251 250 250 249 252 256 258 261 265 263 261 261 259 258 257 257 257 256 256 256 255 253 253 253 254 254 254 253 253 254 256 258 259 261 262 264 266 268 269 270
259 258 256 254 252 250 248 249 251 254 258 260 263 264 263 262 261 260 259 258 257 257 257 257 256 255 254 254 254 255 254 254 254 255 257 259 261 262 265 266 267 268 269 270
258 257 257 255 251 249 249 248 251 254 256 259 260 262 262 262 262 260 260 258 256 257 257 257 257 256 255 255 255 255 255 256 256 257 258 260 261 263 265 266 267 268 269 270
257 255 256 256 253 251 251 252 252 254 255 259 260 262 263 263 263 262 260 259 258 258 258 258 258 257 256 256 256 257 257 257 257 258 259 261 263 264 265 267 268 268 269 269
258 256 254 253 252 249 250 251 252 254 256 260 262 263 264 264 263 263 262 260 261 260 260 260 260 260 259 258 257 258 258 258 258 259 260 262 264 265 266 267 266 268 269 270
258 257 255 253 251 250 250 250 252 254 257 260 262 261 262 264 265 265 264 263 264 261 260 262 263 262 261 259 259 259 259 260 260 261 262 263 264 267 268 267 267 268 270 271
258 258 258 256 254 254 252 251 254 257 259 261 262 263 263 265 266 266 264 264 266 262 260 264 265 263 261 260 259 259 259 260 262 262 263 265 265 268 268 268 270 270 271 271
258 257 258 258 257 258 257 256 258 259 260 263 264 265 264 265 265 266 265 266 267 265 263 265 266 264 262 261 261 260 261 261 262 263 264 265 266 267 268 269 270 271 271 272
257 259 259 259 259 260 259 259 260 262 263 265 266 266 266 266 266 265 266 267 267 266 265 265 265 265 264 263 262 261 262 262 264 265 266 266 266 267 269 270 271 271 272 272
255 257 259 259 260 261 260 261 262 263 265 267 268 268 267 268 268 267 268 268 268 267 265 265 265 266 265 264 262 262 262 264 265 265 266 266 266 266 269 271 272 272 273 273
255 256 257 259 261 260 261 263 264 265 268 268 268 268 268 268 269 269 268 269 270 268 266 266 267 267 266 266 265 264 264 265 266 267 267 266 266 267 269 270 272 273 273 274
256 257 257 259 260 261 263 264 266 268 269 269 270 270 269 269 270 269 270 270 271 270 269 268 268 267 268 267 267 266 265 265 266 266 266 266 266 268 269 270 271 272 273 274
256 257 257 258 261 263 264 265 267 269 270 269 269 269 269 269 270 269 270 270 270 270 270 269 269 268 268 268 268 267 266 266 265 265 265 266 266 268 270 272 272 273 274 274
257 256 256 258 260 263 264 266 267 268 270 270 270 271 270 269 269 269 269 269 270 271 271 271 271 270 269 269 268 266 265 265 265 264 265 266 267 269 272 273 273 273 273 274
258 257 258 260 262 264 265 266 267 267 269 271 271 272 272 271 271 271 270 271 271 271 272 272 272 271 271 270 268 266 264 264 264 264 265 266 268 271 273 274 274 273 273 274
257 259 261 263 264 265 266 268 269 269 270 271 272 273 273 273 272 272 272 272 272 272 272 273 273 273 272 271 268 266 264 263 264 265 266 267 269 271 273 274 274 274 274 274